When you browse on this site, cookies collect data to enhance your experience and personalize the content and advertising you see.
Visit our Privacy Policy to learn more. By continuing to use the site, you agree to this use of cookies and data.
  • In Latvia
  • List of Countries
  • For 7 days
  • Water Temperature
  • Weather Map
  • Weather Widgets
  • user-avatar
    Login

    Hourly Weather San Antonio

    Today, 17 September, Tuesday

    Time Temperature Precipitation Wind Pressure Humidity
    00:00 +28°C° 0 mm 2 mps 742 mmHg 76%
    01:00 +27°C° 0 mm 2 mps 741 mmHg 79%
    02:00 +27°C° 0 mm 2 mps 741 mmHg 81%
    03:00 +27°C° 0 mm 2 mps 741 mmHg 82%
    04:00 +26°C° 0 mm 2 mps 741 mmHg 84%
    05:00 +26°C° 0 mm 1 mps 742 mmHg 82%
    06:00 +27°C° 0 mm 2 mps 742 mmHg 78%
    07:00 +28°C° 0 mm 2 mps 742 mmHg 74%
    08:00 +29°C° 0 mm 3 mps 743 mmHg 69%
    09:00 +31°C° 0 mm 3 mps 742 mmHg 62%
    10:00 +33°C° 0 mm 3 mps 742 mmHg 55%
    11:00 +34°C° 0 mm 3 mps 742 mmHg 48%
    12:00 +35°C° 0 mm 3 mps 741 mmHg 48%
    13:00 +35°C° 0 mm 2 mps 741 mmHg 47%
    14:00 +35°C° 0 mm 2 mps 740 mmHg 46%
    15:00 +35°C° 0 mm 2 mps 740 mmHg 48%
    16:00 +35°C° 0 mm 2 mps 740 mmHg 50%
    17:00 +34°C° 0 mm 2 mps 740 mmHg 52%
    18:00 +32°C° 0 mm 2 mps 740 mmHg 58%
    19:00 +31°C° 0 mm 3 mps 740 mmHg 64%
    20:00 +29°C° 0 mm 3 mps 741 mmHg 69%
    21:00 +29°C° 0 mm 3 mps 741 mmHg 72%
    22:00 +28°C° 0 mm 3 mps 741 mmHg 75%
    23:00 +28°C° 0 mm 2 mps 741 mmHg 79%

    Tomorrow, 18 September, Wednesday

    Time Temperature Precipitation Wind Pressure Humidity
    00:00 +27°C° 0 mm 2 mps 740 mmHg 79%
    01:00 +27°C° 0 mm 2 mps 740 mmHg 80%
    02:00 +27°C° 0 mm 1 mps 740 mmHg 81%
    03:00 +27°C° 0 mm 1 mps 740 mmHg 82%
    04:00 +26°C° 0 mm 1 mps 740 mmHg 82%
    05:00 +26°C° 0 mm 1 mps 740 mmHg 83%
    06:00 +27°C° 0 mm 2 mps 741 mmHg 77%
    07:00 +29°C° 0 mm 2 mps 741 mmHg 72%
    08:00 +30°C° 0 mm 2 mps 742 mmHg 67%
    09:00 +31°C° 0 mm 1 mps 741 mmHg 60%
    10:00 +33°C° 0 mm 1 mps 741 mmHg 54%
    11:00 +35°C° 0 mm 1 mps 741 mmHg 47%
    12:00 +35°C° 0 mm 1 mps 741 mmHg 46%
    13:00 +35°C° 0 mm 1 mps 740 mmHg 44%
    14:00 +37°C° 0 mm 2 mps 739 mmHg 42%
    15:00 +35°C° 0 mm 1 mps 739 mmHg 44%
    16:00 +35°C° 0 mm 1 mps 739 mmHg 45%
    17:00 +35°C° 0 mm 1 mps 739 mmHg 47%
    18:00 +33°C° 0 mm 1 mps 739 mmHg 50%
    19:00 +32°C° 0 mm 2 mps 740 mmHg 54%
    20:00 +31°C° 0 mm 2 mps 740 mmHg 57%
    21:00 +31°C° 0 mm 2 mps 740 mmHg 59%
    22:00 +30°C° 0 mm 2 mps 740 mmHg 61%
    23:00 +30°C° 0 mm 2 mps 740 mmHg 63%

    Day after tomorrow, 19 September, Thursday

    Time Temperature Precipitation Wind Pressure Humidity
    00:00 +30°C° 0.1 mm 1 mps 740 mmHg 65%
    01:00 +29°C° 0.1 mm 1 mps 740 mmHg 68%
    02:00 +27°C° 0.1 mm 0 mps 740 mmHg 70%
    03:00 +28°C° 0.2 mm 1 mps 740 mmHg 73%
    04:00 +28°C° 0.2 mm 1 mps 740 mmHg 76%
    05:00 +27°C° 0.2 mm 1 mps 740 mmHg 80%
    06:00 +29°C° 0.5 mm 2 mps 740 mmHg 75%
    07:00 +30°C° 0.5 mm 2 mps 741 mmHg 70%
    08:00 +31°C° 0.5 mm 3 mps 741 mmHg 65%
    09:00 +34°C° 0.4 mm 3 mps 741 mmHg 58%
    10:00 +35°C° 0.4 mm 3 mps 741 mmHg 52%
    11:00 +36°C° 0.4 mm 3 mps 740 mmHg 46%
    12:00 +37°C° 0 mm 3 mps 740 mmHg 44%
    13:00 +37°C° 0 mm 3 mps 740 mmHg 42%
    14:00 +37°C° 0 mm 2 mps 739 mmHg 40%
    15:00 +36°C° 0 mm 2 mps 739 mmHg 44%
    16:00 +36°C° 0 mm 2 mps 739 mmHg 48%
    17:00 +35°C° 0 mm 3 mps 739 mmHg 51%
    18:00 +33°C° 0.3 mm 3 mps 739 mmHg 58%
    19:00 +31°C° 0.3 mm 3 mps 740 mmHg 64%
    20:00 +29°C° 0.3 mm 4 mps 740 mmHg 70%
    21:00 +29°C° 0.3 mm 3 mps 740 mmHg 72%
    22:00 +29°C° 0.3 mm 3 mps 740 mmHg 75%
    23:00 +28°C° 0.3 mm 3 mps 740 mmHg 77%

    20 September, Friday

    Time Temperature Precipitation Wind Pressure Humidity
    00:00 +28°C° 1.3 mm 3 mps 740 mmHg 80%
    01:00 +28°C° 1.3 mm 4 mps 740 mmHg 82%
    02:00 +27°C° 1.3 mm 4 mps 740 mmHg 84%
    03:00 +27°C° 1.3 mm 4 mps 741 mmHg 84%
    04:00 +27°C° 1.3 mm 4 mps 741 mmHg 84%
    05:00 +27°C° 1.3 mm 4 mps 741 mmHg 85%
    06:00 +28°C° 0.4 mm 4 mps 741 mmHg 82%
    07:00 +29°C° 0.4 mm 5 mps 742 mmHg 79%
    08:00 +29°C° 0.4 mm 5 mps 742 mmHg 76%
    09:00 +32°C° 0 mm 5 mps 742 mmHg 69%
    10:00 +33°C° 0 mm 5 mps 742 mmHg 63%
    11:00 +35°C° 0 mm 5 mps 742 mmHg 56%
    12:00 +35°C° 0 mm 5 mps 741 mmHg 53%
    13:00 +36°C° 0 mm 5 mps 741 mmHg 51%
    14:00 +36°C° 0 mm 5 mps 741 mmHg 48%
    15:00 +35°C° 1 mm 6 mps 740 mmHg 54%
    16:00 +34°C° 1 mm 6 mps 740 mmHg 61%
    17:00 +32°C° 1 mm 6 mps 740 mmHg 67%
    18:00 +30°C° 0.3 mm 6 mps 741 mmHg 71%
    19:00 +29°C° 0.3 mm 6 mps 741 mmHg 75%
    20:00 +28°C° 0.3 mm 6 mps 742 mmHg 79%
    21:00 +28°C° 0 mm 5 mps 742 mmHg 80%
    22:00 +28°C° 0 mm 5 mps 742 mmHg 82%
    23:00 +27°C° 0 mm 4 mps 742 mmHg 84%

    21 September, Saturday

    Time Temperature Precipitation Wind Pressure Humidity
    00:00 +27°C° 0 mm 4 mps 742 mmHg 85%
    01:00 +27°C° 0 mm 3 mps 742 mmHg 87%
    02:00 +26°C° 0 mm 3 mps 742 mmHg 89%
    03:00 +26°C° 0.1 mm 3 mps 743 mmHg 89%
    04:00 +26°C° 0.1 mm 3 mps 743 mmHg 89%
    05:00 +26°C° 0.1 mm 3 mps 743 mmHg 90%
    06:00 +27°C° 0.1 mm 4 mps 743 mmHg 85%
    07:00 +28°C° 0.1 mm 4 mps 744 mmHg 80%
    08:00 +29°C° 0.1 mm 5 mps 744 mmHg 75%
    09:00 +32°C° 0.2 mm 5 mps 744 mmHg 70%
    10:00 +33°C° 0.2 mm 5 mps 743 mmHg 64%
    11:00 +34°C° 0.2 mm 5 mps 743 mmHg 59%
    12:00 +34°C° 0.1 mm 5 mps 742 mmHg 56%
    13:00 +35°C° 0.1 mm 5 mps 742 mmHg 52%
    14:00 +36°C° 0.1 mm 5 mps 741 mmHg 49%
    15:00 +35°C° 0 mm 5 mps 741 mmHg 53%
    16:00 +34°C° 0 mm 5 mps 741 mmHg 57%
    17:00 +33°C° 0 mm 5 mps 741 mmHg 60%
    18:00 +32°C° 0 mm 5 mps 742 mmHg 64%
    19:00 +30°C° 0 mm 6 mps 742 mmHg 68%
    20:00 +29°C° 0 mm 6 mps 742 mmHg 72%
    21:00 +28°C° 0 mm 5 mps 743 mmHg 76%
    22:00 +28°C° 0 mm 4 mps 743 mmHg 80%
    23:00 +27°C° 0 mm 4 mps 743 mmHg 85%

    22 September, Sunday

    Time Temperature Precipitation Wind Pressure Humidity
    00:00 +27°C° 0 mm 3 mps 743 mmHg 86%
    01:00 +27°C° 0 mm 3 mps 743 mmHg 88%
    02:00 +26°C° 0 mm 3 mps 742 mmHg 90%
    03:00 +26°C° 0 mm 2 mps 742 mmHg 91%
    04:00 +26°C° 0 mm 2 mps 742 mmHg 92%
    05:00 +26°C° 0 mm 2 mps 742 mmHg 93%
    06:00 +27°C° 0 mm 3 mps 743 mmHg 87%
    07:00 +28°C° 0 mm 3 mps 743 mmHg 81%
    08:00 +29°C° 0 mm 4 mps 744 mmHg 74%
    09:00 +30°C° 0 mm 4 mps 744 mmHg 70%
    10:00 +32°C° 0 mm 4 mps 743 mmHg 65%
    11:00 +33°C° 0 mm 4 mps 743 mmHg 60%
    12:00 +34°C° 0 mm 4 mps 742 mmHg 57%
    13:00 +34°C° 0 mm 4 mps 742 mmHg 55%
    14:00 +35°C° 0 mm 4 mps 741 mmHg 52%
    15:00 +34°C° 0 mm 4 mps 741 mmHg 54%
    16:00 +34°C° 0 mm 3 mps 741 mmHg 56%
    17:00 +33°C° 0 mm 3 mps 741 mmHg 58%
    18:00 +32°C° 0 mm 4 mps 741 mmHg 60%
    19:00 +30°C° 0 mm 4 mps 741 mmHg 62%
    20:00 +29°C° 0 mm 5 mps 742 mmHg 64%
    21:00 +29°C° 0 mm 4 mps 742 mmHg 69%
    22:00 +28°C° 0 mm 4 mps 742 mmHg 73%
    23:00 +27°C° 0 mm 4 mps 742 mmHg 78%
    Show more